Wind_Speed
11 11 11 11 11 12 11 11 10 10 10 11 11 11 12 13 13 12 11 11 8 7 6 6 5 3 1 3 3 6 9 8 5 2 5 3 3 2 4 2 2 4 2 4 5 9 7
13 13 13 13 13 12 13 13 12 11 10 10 11 12 13 13 13 14 11 10 7 5 6 5 4 3 1 1 2 8 8 7 10 6 5 6 2 2 5 3 4 3 6 5 2 4 4
15 15 16 14 15 15 14 13 12 13 13 11 11 11 12 13 14 14 12 9 6 5 5 5 4 3 1 4 2 6 6 5 8 6 2 4 2 3 2 4 5 4 4 2 2 4 4
12 16 16 15 17 17 17 16 14 13 14 15 13 13 13 13 14 14 12 10 6 4 4 3 2 2 3 0 2 4 4 1 4 3 4 4 4 6 4 4 6 4 4 2 2 5 1
11 11 13 17 19 20 18 18 18 16 15 15 16 14 14 14 14 14 12 9 5 3 2 1 0 1 5 0 1 3 4 2 3 3 4 4 5 4 4 5 4 5 3 4 2 5 4
11 12 13 15 14 16 17 18 19 19 17 17 16 17 15 16 16 14 13 8 4 2 1 1 1 3 1 1 1 2 1 2 4 2 3 6 5 4 3 3 5 6 4 4 4 6 4
14 14 13 15 16 15 15 17 18 21 20 19 18 17 18 16 16 14 12 5 3 3 1 5 2 2 1 1 1 1 2 2 2 7 3 3 4 6 10 7 2 5 4 3 3 4 4
15 16 17 16 15 15 15 15 15 18 20 21 21 19 18 18 16 11 6 3 2 1 6 3 1 2 1 2 1 2 1 3 2 4 4 5 6 5 4 5 3 3 2 3 2 3 4
17 16 18 18 18 16 16 15 16 17 19 19 21 21 20 18 14 6 3 2 1 3 1 4 3 3 2 5 3 4 2 3 3 5 5 6 2 5 4 4 5 3 4 4 3 2 2
12 15 17 17 19 19 17 17 16 16 17 18 19 19 20 19 7 4 2 1 2 2 4 4 2 2 2 3 3 0 1 2 1 8 7 4 1 4 3 3 5 2 2 2 4 3 3
12 16 18 18 17 18 19 18 17 17 17 17 16 17 18 14 12 3 2 1 4 2 4 1 2 0 1 4 4 1 0 1 5 5 5 4 5 4 3 3 5 4 3 4 2 3 2
14 14 14 17 17 18 19 19 19 17 17 17 16 15 16 12 10 6 2 2 1 6 7 3 4 5 3 2 2 2 2 3 2 4 2 1 0 1 3 2 2 7 5 6 4 2 2
15 15 15 14 13 15 16 16 20 20 18 16 16 16 15 11 5 5 3 1 4 5 2 3 4 4 4 6 4 5 5 4 6 4 5 0 2 1 3 5 3 3 5 2 4 2 6
18 17 15 15 14 15 17 19 17 20 20 17 14 16 17 16 8 5 4 4 6 6 7 4 3 2 5 7 4 5 5 4 4 4 3 6 5 8 4 4 6 6 6 5 6 4 3
18 19 19 17 16 16 15 15 18 20 21 18 16 13 11 11 13 8 4 4 8 8 5 9 5 4 4 4 5 5 7 6 9 12 10 6 5 1 0 1 3 5 5 2 5 3 2
17 17 18 19 18 18 18 19 18 16 18 20 10 0 6 7 7 4 2 11 6 4 5 4 10 8 8 5 5 6 8 5 5 9 1 6 2 0 2 1 1 3 3 3 1 4 5
16 16 16 17 17 17 19 19 18 15 18 23 3 1 2 6 6 2 7 8 7 7 5 8 10 6 6 9 9 6 5 3 4 5 2 5 3 1 3 8 9 3 3 1 2 4 5
17 16 16 15 17 17 17 15 12 14 17 17 6 2 3 9 3 3 8 5 5 5 3 7 3 8 10 9 8 8 9 7 8 10 9 6 5 5 7 1 1 2 7 7 5 6 2
19 18 18 16 16 17 15 11 13 13 15 7 3 2 1 4 4 5 5 5 4 3 5 6 7 8 5 9 4 9 8 1 7 9 10 9 4 1 4 1 2 6 6 4 4 3 7
20 19 21 20 18 17 16 12 11 10 15 7 1 2 2 2 1 4 6 9 9 2 5 3 2 2 1 5 5 5 7 1 3 4 2 4 4 7 10 5 6 6 7 6 6 4 5
21 20 21 21 19 17 15 14 11 12 12 8 2 1 1 3 5 8 2 3 6 9 2 4 4 6 5 5 2 5 2 2 2 3 2 4 7 4 2 1 2 4 5 11 13 13 10
23 21 23 19 18 16 14 13 11 16 14 7 3 2 3 3 2 4 7 3 8 7 4 6 13 6 3 5 2 2 2 1 1 2 5 1 2 2 1 4 2 5 8 8 15 10 12
24 23 24 20 20 18 14 12 10 15 20 6 4 2 1 2 1 2 4 6 5 4 6 9 6 9 11 10 6 6 5 3 2 1 3 2 3 3 4 3 5 10 9 20 12 6 11
25 24 22 22 24 21 17 14 11 15 24 8 5 4 2 3 6 5 4 5 6 7 5 3 2 4 2 5 6 7 6 4 4 4 4 5 6 3 2 0 5 4 2 2 4 3 3
25 22 22 22 21 21 19 16 12 13 23 20 6 3 3 3 5 6 9 7 3 2 3 3 2 2 4 2 1 2 1 2 3 1 2 2 4 4 4 4 8 2 4 5 6 4 6
25 21 20 20 21 19 19 18 14 12 16 21 13 10 2 0 6 5 3 1 3 2 0 2 2 1 1 2 2 5 5 3 3 1 1 2 2 2 3 4 6 3 2 1 2 5 5
22 20 21 20 22 20 19 16 13 15 13 21 9 14 3 3 1 1 3 3 4 2 1 2 2 2 3 2 2 3 3 1 4 7 5 3 1 8 4 3 6 1 3 3 5 4 4
17 20 20 20 20 22 23 21 20 17 16 19 10 14 6 2 1 3 4 2 2 2 2 4 2 3 2 3 3 3 3 3 3 3 5 6 7 4 3 2 7 3 3 4 1 2 5
18 18 20 22 22 25 22 23 28 25 20 17 7 11 10 3 1 2 5 3 2 3 1 2 2 2 2 2 2 1 2 2 1 2 2 4 3 4 5 2 1 2 1 1 2 4 4
Wind_Direction
351 356 356 357 359 358 355 355 355 354 356 356 356 354 355 349 352 351 349 347 347 351 353 353 350 353 328 24 276 337 346 354 360 352 49 40 63 102 106 81 58 76 122 53 78 88 80
341 345 346 346 349 350 352 351 350 349 348 349 350 349 348 348 346 344 345 344 333 343 351 354 1 356 43 317 335 339 346 8 18 29 39 39 98 139 98 68 62 55 87 121 72 95 97
331 335 335 337 340 342 342 344 348 347 343 343 344 342 344 342 341 341 339 338 327 336 342 347 8 21 70 234 351 353 353 24 19 24 62 57 56 73 99 90 158 133 78 92 132 165 139
317 327 333 335 336 334 336 337 335 338 344 343 339 337 338 336 336 337 338 332 323 317 340 331 346 1 235 312 343 353 16 51 35 51 79 60 66 97 61 119 33 64 55 122 200 153 134
299 314 320 321 327 331 328 332 334 336 333 337 340 335 331 332 334 336 333 324 307 297 299 304 335 63 277 268 329 348 10 35 36 69 69 86 70 83 50 88 32 10 208 206 259 202 137
318 310 306 306 321 327 329 327 328 331 336 335 332 334 331 332 331 332 330 314 281 295 215 151 101 33 298 206 296 328 7 53 88 82 41 47 53 77 49 97 216 199 209 232 226 207 160
312 315 314 312 309 316 322 325 326 327 330 333 335 330 329 331 332 332 340 317 358 323 183 198 194 206 186 174 267 344 2 111 88 56 141 12 100 200 207 186 139 143 180 210 222 176 147
301 311 311 307 308 309 313 315 320 323 325 330 332 332 327 328 329 323 344 55 34 283 307 221 219 275 230 153 242 252 314 152 145 166 123 37 232 217 150 164 170 175 171 249 279 135 168
287 292 302 302 300 303 310 309 310 318 321 326 329 330 329 326 323 307 22 104 25 336 266 290 204 187 200 154 224 209 174 156 143 143 176 163 233 129 140 143 159 197 183 195 212 97 184
296 288 290 294 295 294 299 306 306 310 315 321 325 327 328 328 302 327 310 139 86 344 38 261 233 277 106 128 256 245 109 161 123 188 162 224 198 155 145 179 138 223 204 129 143 107 227
305 293 288 290 291 285 289 293 299 304 308 314 320 324 325 328 306 282 262 207 118 71 356 193 187 110 141 167 134 265 241 81 169 167 116 247 166 162 161 194 172 203 84 93 69 102 56
301 308 305 288 287 286 283 282 286 291 297 305 311 318 319 324 290 271 222 203 146 52 259 216 151 170 148 225 205 147 172 57 100 110 42 197 290 149 167 93 91 149 79 48 62 75 318
299 302 303 299 286 288 285 281 281 281 284 291 302 308 306 293 279 290 225 346 42 150 302 239 224 174 192 192 209 182 171 174 160 119 213 159 213 168 149 94 32 93 87 325 341 2 230
308 302 303 308 305 287 287 291 285 278 275 278 284 294 298 275 273 241 283 36 200 231 207 132 102 70 203 166 217 183 148 212 228 110 127 165 286 175 180 195 177 178 166 171 226 207 248
307 307 306 299 292 299 294 289 289 288 278 266 269 286 291 277 231 202 81 223 210 203 190 151 124 183 244 231 176 161 210 216 202 176 177 157 259 79 124 148 136 188 195 174 106 64 53
311 312 310 310 301 297 301 299 287 286 285 267 258 27 260 291 199 178 137 229 238 239 135 145 185 170 193 196 183 184 186 206 216 193 188 196 143 226 121 79 8 177 165 86 7 213 247
302 307 308 306 305 298 297 299 294 281 269 260 183 42 13 151 137 308 222 223 248 236 189 175 200 195 214 175 183 206 228 262 182 152 142 142 128 168 123 202 179 152 202 85 139 171 203
298 301 304 307 305 305 308 310 306 290 255 221 122 268 76 146 132 203 247 206 229 242 192 251 215 198 187 189 193 206 211 225 160 149 166 199 138 180 194 147 69 220 200 169 157 213 220
293 294 297 301 304 302 297 288 294 298 258 162 180 147 143 106 200 218 263 264 259 273 231 203 229 208 186 189 214 199 197 16 158 167 163 181 204 94 322 354 6 218 194 163 108 84 191
286 289 291 293 298 302 300 284 274 268 248 199 203 159 144 135 255 282 252 255 255 236 283 246 245 335 192 220 250 222 207 141 179 192 111 116 182 188 213 179 129 193 189 181 156 143 185
282 287 298 287 287 294 299 293 277 241 254 193 258 183 135 200 220 213 319 308 264 235 270 328 254 206 236 236 221 227 104 108 29 202 104 171 220 184 265 28 196 206 173 181 203 215 204
276 275 287 287 284 284 290 293 272 238 230 213 176 203 115 290 276 216 172 235 246 238 206 233 238 192 134 224 212 60 105 225 225 42 160 116 194 123 270 62 255 265 237 204 217 232 255
268 271 282 281 285 280 277 283 272 226 222 199 165 125 231 189 267 235 214 188 254 293 235 237 281 237 234 235 203 150 146 141 87 149 147 172 132 73 249 352 10 295 201 211 214 197 219
267 263 279 279 279 273 268 266 266 232 221 217 184 138 138 259 215 211 253 217 234 236 270 297 261 209 101 101 94 85 70 79 170 162 166 159 157 171 197 42 222 234 196 125 229 213 170
274 258 274 278 281 270 257 252 251 232 221 227 197 174 163 251 223 257 244 261 280 232 224 265 256 323 134 195 109 136 113 139 159 21 216 312 163 174 179 212 320 266 215 173 167 269 175
269 254 268 273 278 278 262 240 238 237 223 227 237 242 258 184 238 235 259 168 270 228 110 136 12 49 346 235 190 211 205 167 163 45 129 238 300 243 143 204 227 263 241 192 159 299 172
254 251 261 266 272 278 274 256 248 238 227 218 232 216 206 253 56 294 210 231 167 234 91 108 185 218 264 184 211 223 220 62 175 167 156 150 195 223 183 225 284 235 141 184 96 260 137
248 255 259 261 266 267 269 266 261 260 234 209 224 222 204 210 139 13 12 253 171 222 198 129 121 238 190 193 207 206 208 197 157 131 171 162 165 191 156 192 266 142 100 184 212 57 121
259 258 261 268 268 258 253 249 250 256 242 210 203 207 199 104 98 74 90 44 357 349 332 182 287 243 196 178 224 176 155 137 127 194 142 215 215 174 207 207 326 158 36 346 134 130 146
Height
858 856 854 851 849 847 845 842 840 837 835 832 830 828 825 824 821 819 817 815 814 813 811 810 810 809 810 810 810 808 806 805 804 803 802 802 805 808 816 817 818 824 829 833 836 838 843
860 857 855 854 851 847 845 843 841 838 835 833 830 829 826 824 821 820 816 814 814 812 811 810 809 808 810 815 809 808 806 805 805 804 804 804 806 807 814 821 823 829 833 837 836 839 843
860 858 856 855 853 850 847 844 841 840 838 833 830 828 826 824 821 818 816 813 812 811 810 809 808 808 810 811 808 808 807 806 806 806 806 806 806 807 813 822 827 829 834 833 837 838 843
858 858 857 855 854 851 849 846 843 840 837 835 832 828 825 823 820 817 814 813 811 810 809 809 809 809 810 808 808 808 807 807 806 806 806 807 807 810 816 823 830 834 839 843 835 837 843
856 853 853 853 852 851 849 847 844 841 838 835 833 830 827 823 819 815 813 811 810 809 808 808 809 809 810 807 808 808 807 807 806 807 807 807 808 819 822 834 844 847 847 844 835 838 842
854 854 852 851 849 848 848 847 845 842 839 836 833 830 826 822 818 815 812 811 809 808 808 808 809 814 809 808 807 808 807 806 806 807 809 811 821 830 838 840 849 842 844 841 838 838 840
855 852 850 850 849 847 844 845 844 843 840 836 833 830 827 822 819 815 813 812 813 812 808 805 806 807 806 807 808 808 807 807 807 810 819 820 829 835 830 831 827 835 836 833 832 835 837
853 852 850 849 846 844 843 842 840 840 839 836 833 829 827 824 819 817 813 814 816 817 812 804 805 806 805 806 808 807 808 810 810 817 819 827 831 821 821 828 826 828 830 832 831 836 839
849 849 848 846 845 843 841 839 839 838 838 835 832 829 826 824 820 818 815 814 815 816 817 807 805 804 805 806 807 807 808 808 811 818 820 825 816 817 818 825 829 829 834 833 832 835 839
846 845 844 843 842 841 840 838 837 835 834 834 832 829 826 824 824 817 817 814 814 817 830 810 807 804 804 806 809 806 806 808 811 817 823 819 815 817 819 822 827 827 829 826 832 839 846
842 842 841 840 838 837 837 836 835 834 833 831 829 829 827 827 825 820 819 817 812 817 854 806 807 804 805 809 809 807 806 807 812 814 819 818 819 819 820 819 823 827 829 831 836 846 849
841 838 836 835 835 834 834 833 832 831 831 830 829 827 826 826 826 822 818 818 816 839 846 804 805 807 809 808 807 807 807 806 808 813 815 817 817 817 818 825 823 831 834 847 857 857 865
837 836 834 831 830 830 830 829 829 829 828 827 828 828 826 825 824 824 822 821 840 847 804 805 808 808 807 810 809 808 810 812 816 827 821 818 818 819 818 826 826 828 836 851 853 866 843
837 835 832 830 828 826 826 826 825 824 825 825 823 825 825 823 822 823 826 830 829 808 802 797 804 808 808 805 805 807 810 812 810 810 833 827 825 820 817 817 822 832 831 841 829 846 833
832 831 831 829 827 826 823 822 822 823 821 821 819 819 821 820 821 821 830 842 818 806 789 795 799 805 807 801 803 806 814 809 800 805 805 822 812 818 819 819 818 829 832 827 838 857 859
830 828 827 826 825 823 821 820 819 818 819 819 819 815 818 818 820 821 830 811 805 792 788 789 792 791 798 804 806 810 807 791 788 797 791 798 806 820 821 821 823 824 826 836 845 829 833
825 825 823 823 821 819 818 816 815 815 815 817 817 818 817 818 821 824 814 816 795 786 786 788 786 788 789 795 800 807 792 784 787 799 795 802 798 824 821 825 821 830 828 832 833 836 831
822 821 820 818 818 817 817 814 812 811 811 812 817 817 818 821 827 828 813 801 788 780 783 781 780 779 786 790 796 796 786 783 786 792 797 800 810 828 814 818 819 817 817 820 823 818 846
820 817 817 815 814 813 812 811 810 809 809 810 812 814 818 820 824 820 807 795 788 783 781 779 779 777 776 779 780 784 780 783 785 786 789 796 806 824 803 815 821 820 818 818 829 833 838
815 814 813 812 810 809 808 807 806 806 805 808 813 806 817 820 820 816 801 792 790 783 782 780 777 776 774 774 776 764 777 785 785 784 783 784 798 784 771 773 801 813 809 814 807 843 809
809 809 809 807 805 805 804 804 804 802 803 805 808 799 806 809 810 811 813 807 795 786 788 783 778 773 773 769 768 772 784 789 788 784 789 789 793 798 791 789 793 789 793 806 801 786 792
805 803 804 803 801 801 800 801 800 800 801 803 804 805 804 806 802 800 803 801 795 785 790 784 782 777 778 781 774 773 781 785 776 793 790 796 788 796 787 800 802 800 796 800 792 786 789
800 800 800 798 797 797 796 797 797 798 798 797 799 799 801 799 805 802 796 790 792 788 783 780 780 779 781 777 780 786 792 795 796 793 793 797 791 800 798 807 796 789 792 780 771 784 772
792 792 793 794 793 792 792 793 794 794 794 795 795 796 800 798 798 795 790 789 786 788 788 790 790 785 790 792 791 791 794 796 797 801 799 805 804 804 803 805 794 771 807 807 794 795 808
786 786 787 788 787 786 787 789 790 790 791 792 792 793 795 793 793 790 786 784 784 788 790 791 793 795 790 792 789 787 790 786 793 807 807 800 798 800 799 802 784 789 805 803 788 781 806
780 781 782 782 782 782 781 783 785 786 787 789 790 790 792 789 783 782 784 785 787 785 787 791 799 797 795 790 780 773 767 767 790 802 811 810 804 791 808 794 785 798 802 802 807 797 815
773 774 776 777 777 777 777 779 780 781 783 786 787 788 790 786 788 787 784 784 786 787 786 793 799 801 797 787 775 772 768 782 783 790 805 805 807 790 796 796 790 803 804 806 794 793 814
768 769 771 771 772 772 773 774 775 777 778 781 783 785 786 786 791 792 792 790 787 786 783 792 798 799 793 783 776 773 773 782 785 793 794 791 795 799 797 797 794 807 808 792 805 813 813
763 764 764 764 765 766 766 768 771 772 774 776 780 781 782 785 791 792 792 793 793 793 791 792 789 789 783 779 781 773 773 787 785 777 792 793 786 789 790 789 808 807 807 809 808 809 815